Bydgoszcz Ignacy Jan Pade, Poland

5:15 AM CEST on October 18, 2018 (GMT +0200)
Szwederowo

Weather History for EPBY - February, 2018

Change the Weather History Date:

Wednesday, February 14, 2018

  Actual Average Record
Temperature  
Mean Temperature 29 °F -  
Max Temperature 32 °F - - ()
Min Temperature 26 °F - - ()
Degree Days  
Heating Degree Days 36    
Moisture  
Dew Point 27 °F    
Average Humidity 92    
Maximum Humidity 100    
Minimum Humidity 80    
Precipitation  
Precipitation 0.00 in - - ()
Sea Level Pressure  
Sea Level Pressure 30.14 in    
Wind  
Wind Speed 5 mph ()    
Max Wind Speed 9 mph    
Max Gust Speed -    
Visibility 2.0 miles    
Events Fog    
T = Trace of Precipitation, MM = Missing Value Source: Averaged Metar Reports

Daily Weather History Graph

Daily Weather History Graph

Search for Another Location

Airport or City:

Astronomy

Feb. 14, 2018 Rise Set
Actual Time 7:08 AM CET 4:57 PM CET
Civil Twilight 6:31 AM CET 5:33 PM CET
Nautical Twilight 5:51 AM CET 6:13 PM CET
Astronomical Twilight 5:11 AM CET 6:53 PM CET
Moon 6:30 AM CET (2/14) 3:29 PM CET (2/14)
Length of Visible Light 11h 01m
Length of Day
9h 49m
Waning Crescent, 2% of the Moon is Illuminated
Feb 14
Waning Crescent
Feb 15
New
Feb 23
First Quarter
Mar 2
Full
Mar 9
Last Quarter

Hourly Weather History & Observations

Time (CET) Temp. Windchill Dew Point Humidity Pressure Visibility Wind Dir Wind Speed Gust Speed Precip Events Conditions
12:00 AM 28.4 °F 23.3 °F 26.6 °F 93% 30.06 in 1.4 mi ENE 4.6 mph - N/A   Overcast
12:30 AM 28.4 °F 23.3 °F 26.6 °F 93% 30.06 in 1.2 mi ENE 4.6 mph - N/A   Overcast
1:00 AM 26.6 °F 21.2 °F 26.6 °F 100% 30.06 in 0.6 mi North 4.6 mph - N/A   Overcast
1:30 AM 26.6 °F 21.2 °F 26.6 °F 100% 30.06 in 0.6 mi NNE 4.6 mph - N/A Fog Light Freezing Fog
2:00 AM 26.6 °F 21.2 °F 26.6 °F 100% 30.06 in 0.5 mi NNE 4.6 mph - N/A Fog Light Freezing Fog
2:30 AM 26.6 °F 21.2 °F 26.6 °F 100% 30.06 in 0.2 mi NNE 4.6 mph - N/A Fog Light Freezing Fog
3:00 AM 28.4 °F 23.3 °F 26.6 °F 93% 30.06 in 0.3 mi NNE 4.6 mph - N/A Fog Light Freezing Fog
3:30 AM 28.4 °F 21.2 °F 26.6 °F 93% 30.09 in 0.2 mi NNE 6.9 mph - N/A Fog Light Freezing Fog
4:00 AM 28.4 °F 23.3 °F 26.6 °F 93% 30.09 in 0.3 mi NE 4.6 mph - N/A Fog Light Freezing Fog
4:30 AM 28.4 °F 23.3 °F 28.4 °F 100% 30.09 in 1.2 mi NE 4.6 mph - N/A   Overcast
5:00 AM 28.4 °F 22.2 °F 28.4 °F 100% 30.09 in 1.7 mi NE 5.8 mph - N/A   Overcast
5:30 AM 28.4 °F 21.2 °F 28.4 °F 100% 30.09 in - ENE 6.9 mph - N/A   Overcast
6:00 AM 28.4 °F 22.2 °F 28.4 °F 100% 30.09 in - NE 5.8 mph - N/A   Overcast
6:30 AM 28.4 °F 22.2 °F 28.4 °F 100% 30.12 in 1.8 mi NE 5.8 mph - N/A   Overcast
7:30 AM 28.4 °F 22.2 °F 28.4 °F 100% 30.12 in 1.5 mi NNE 5.8 mph - N/A   Overcast
8:00 AM 28.4 °F 22.2 °F 28.4 °F 100% 30.12 in 1.6 mi NNE 5.8 mph - N/A   Overcast
8:30 AM 28.4 °F 22.2 °F 28.4 °F 100% 30.12 in 1.4 mi NNE 5.8 mph - N/A   Overcast
9:00 AM 28.4 °F 22.2 °F 28.4 °F 100% 30.15 in 1.7 mi North 5.8 mph - N/A   Overcast
9:30 AM 28.4 °F 22.2 °F 28.4 °F 100% 30.15 in - North 5.8 mph - N/A   Overcast
10:00 AM 30.2 °F 23.4 °F 28.4 °F 93% 30.15 in - North 6.9 mph - N/A   Overcast
10:30 AM 30.2 °F 23.4 °F 26.6 °F 86% 30.15 in - ENE 6.9 mph - N/A   Overcast
11:30 AM 30.2 °F 24.3 °F 28.4 °F 93% 30.15 in - NNE 5.8 mph - N/A   Overcast
12:00 PM 30.2 °F 24.3 °F 26.6 °F 86% 30.18 in 2.8 mi NE 5.8 mph - N/A   Overcast
12:30 PM 30.2 °F 24.3 °F 28.4 °F 93% 30.18 in - NNE 5.8 mph - N/A   Overcast
1:00 PM 30.2 °F 23.4 °F 26.6 °F 86% 30.18 in - NNE 6.9 mph - N/A   Overcast
1:30 PM 32.0 °F 25.6 °F 28.4 °F 87% 30.15 in - NE 6.9 mph - N/A   Overcast
2:30 PM 32.0 °F 25.6 °F 28.4 °F 87% 30.18 in 3.1 mi North 6.9 mph - N/A   Overcast
3:00 PM 32.0 °F 26.4 °F 26.6 °F 80% 30.18 in 3.7 mi NE 5.8 mph - N/A   Overcast
3:30 PM 32.0 °F 26.4 °F 26.6 °F 80% 30.18 in 4.3 mi NNE 5.8 mph - N/A   Overcast
4:00 PM 32.0 °F 24.8 °F 26.6 °F 80% 30.18 in 3.7 mi NE 8.1 mph - N/A   Overcast
4:30 PM 32.0 °F 24.2 °F 26.6 °F 80% 30.18 in 3.7 mi NNE 9.2 mph - N/A   Overcast
5:30 PM 32.0 °F 25.6 °F 26.6 °F 80% 30.21 in 4.3 mi NE 6.9 mph - N/A   Overcast
6:30 PM 30.2 °F 26.7 °F 26.6 °F 86% 30.21 in 3.7 mi NNE 3.5 mph - N/A   Mostly Cloudy
7:00 PM 32.0 °F 28.7 °F 26.6 °F 80% 30.21 in 3.1 mi NE 3.5 mph - N/A   Overcast
8:00 PM 30.2 °F 25.4 °F 26.6 °F 86% 30.21 in 3.1 mi North 4.6 mph - N/A   Mostly Cloudy
8:30 PM 30.2 °F 26.7 °F 26.6 °F 86% 30.21 in 3.1 mi North 3.5 mph - N/A   Overcast
9:00 PM 30.2 °F - 26.6 °F 86% 30.21 in - North 2.3 mph - N/A   Scattered Clouds
10:00 PM 30.2 °F 26.7 °F 28.4 °F 93% 30.21 in - NNE 3.5 mph - N/A   Mostly Cloudy
10:30 PM 30.2 °F 24.3 °F 28.4 °F 93% 30.21 in - NE 5.8 mph - N/A   Mostly Cloudy
11:30 PM 30.2 °F 24.3 °F 28.4 °F 93% 30.21 in - ENE 5.8 mph - N/A   Mostly Cloudy